P/2013 A2 ( Scotti )

Japanese version
Home page
Updated on September 8, 2013

---------------------------------------------------------------------

* Profile

Discovery Date January 6, 2013
Magnitude 19.5 mag
Discoverer J. V. Scotti (Spacewatch, Kitt Peak)

* Pictures

* Orbital Elements

Epoch 2013 Jan. 28.0 TT = JDT 2456320.5
T 2013 Feb. 7.29231 TT                                  MPC
q   2.1774064            (2000.0)            P               Q
n   0.12312761     Peri.  134.50435     -0.64750039     -0.76205323
a   4.0015883      Node   355.84235     +0.68146695     -0.57650953
e   0.4558645      Incl.    3.36618     +0.34109535     -0.29480780
P   8.00
From 89 observations 2013 Jan. 6-June 1, mean residual 0".4.

* Magnitudes Graph

        m1 = 12.5 + 5 log d + 20.0 log r

---------------------------------------------------------------------

The orbital elements are published on M.P.E.C. 2013-L39.
The magnitudes graphs are made with Comet for Windows.

---------------------------------------------------------------------

Copyright(C) Seiichi Yoshida (comet@aerith.net). All rights reserved.